User: anonymous   Login
Location: Karwodrza
(49.9217°N, 21.0454°E)
Time: 03:57:31
(UTC+01:00)
Language:

ISS - Orbit

View from above orbital plane
View from above orbital plane
View from above satellite
View from above satellite

Ground track
Ground track

The orbit data is extracted from the following two-line orbital elements,

1 25544U 98067A   19323.62445949  .00016717  00000-0  10270-3 0  9075
2 25544  51.6414 310.6377 0006702 300.6555  59.3935 15.49989348 39364
Epoch (UTC): 19 November 2019 14:59:13
Eccentricity: 0.0006702
inclination: 51.6414°
perigee height: 412 km
apogee height: 421 km
right ascension of ascending node: 310.6377°
argument of perigee: 300.6555°
revolutions per day: 15.49989348
mean anomaly at epoch: 59.3935°
orbit number at epoch: 3936

The dashed part of the orbit path shows where the satellite is in the earth's shadow,  

DLR